Location: Unspecified
(0.0000°N, 0.0000°E)
Time: 18:51:28
(UTC+00:00)

SR - Pass Details

Date: 28 November 2019
Orbit: 573 x 882 km, 66.7° (Epoch: 06 December)

Event Time Altitude Azimuth Distance (km) Brightness Sun altitude
Rises 11:13:54 0° 210° (SSW) 2,934 ? 67.1°
Reaches altitude 10° 11:16:09 10° 215° (SW) 2,065 ? 67.3°
Maximum altitude 11:20:41 50° 290° (WNW) 883 ? 67.7°
Drops below altitude 10° 11:25:38 10° 6° (N) 2,251 ? 68.0°
Sets 11:28:11 0° 11° (N) 3,226 ? 68.2°
